M I D A S
Marine Information and Data Acquisition System
Tripno 522 of the Zeeleeuw from 2003-06-23 06:31:47 to 2003-06-23 11:49:05
Back to CruiseResearch ActivitiesStationsMapUnderway DataData graphs

EquipmentUnitsComments
TimeDGPSUTC
LatitudeDGPSDM.mWGS84
LongitudeDGPSDM.mWGS84
SpeedMeteo Stationm/sRelative wind speed
DirectionMeteo StationdegRelative wind direction
TemperatureMeteo Stationdeg CelciusAir temperature
PressureMeteo StationPaAtmospheric pressure
HumidityMeteo Station%Relative humidity
Missing or incorrect values are displayed as -999
Metereological data collected by the RV Zeeleeuw from 2003-06-23 06:31:47 to 2003-06-23 11:49:05
                                                                                    Next 1000 lines
Time Latitude Longitude Speed Direction Temperature Pressure Humidity
2003-06-23 06:31:57 51°13.62 2°56.02 3 111 20.6 100190 73
2003-06-23 06:32:01 51°13.62 2°56.01 2.7 127 20.6 100190 73
2003-06-23 06:32:07 51°13.62 2°56 2.6 132 20.6 100180 73
2003-06-23 06:32:13 51°13.62 2°55.99 2.4 111 20.6 100180 73
2003-06-23 06:32:17 51°13.63 2°55.98 2.6 128 20.6 100180 73
2003-06-23 06:32:23 51°13.63 2°55.97 2.3 130 20.6 100180 73
2003-06-23 06:32:29 51°13.63 2°55.96 2.7 141 20.6 100190 73
2003-06-23 06:32:33 51°13.64 2°55.95 3.9 145 20.6 100190 73
2003-06-23 06:32:39 51°13.64 2°55.94 3.9 122 20.6 100180 73
2003-06-23 06:32:43 51°13.64 2°55.93 2.7 165 20.6 100180 73
2003-06-23 06:32:49 51°13.64 2°55.92 2.8 176 20.6 100180 73
2003-06-23 06:32:53 51°13.65 2°55.91 2.4 186 20.6 100180 73
2003-06-23 06:32:59 51°13.65 2°55.9 2.8 155 20.6 100190 73
2003-06-23 06:33:03 51°13.65 2°55.9 4 154 20.6 100190 73
2003-06-23 06:33:09 51°13.66 2°55.88 3.2 144 20.7 100180 74
2003-06-23 06:33:13 51°13.66 2°55.88 2.3 171 20.7 100180 74
2003-06-23 06:33:19 51°13.66 2°55.86 1.9 167 20.7 100180 74
2003-06-23 06:33:23 51°13.66 2°55.86 2.9 171 20.7 100180 74
2003-06-23 06:33:29 51°13.67 2°55.85 3.8 139 20.7 100180 74
2003-06-23 06:33:33 51°13.67 2°55.84 3.8 171 20.7 100180 74
2003-06-23 06:33:39 51°13.67 2°55.83 3.4 140 20.7 100180 74
2003-06-23 06:33:43 51°13.67 2°55.82 2.8 149 20.7 100180 74
2003-06-23 06:33:49 51°13.67 2°55.81 3.3 138 20.7 100180 74
2003-06-23 06:33:53 51°13.67 2°55.81 3.8 141 20.7 100180 74
2003-06-23 06:33:57 51°13.68 2°55.8 3.5 135 20.7 100180 73
2003-06-23 06:34:03 51°13.68 2°55.79 2.8 120 20.7 100180 73
2003-06-23 06:34:07 51°13.68 2°55.79 3.1 134 20.7 100180 74
2003-06-23 06:34:11 51°13.68 2°55.78 3.2 137 20.7 100180 74
2003-06-23 06:34:15 51°13.68 2°55.78 2.9 141 20.7 100170 73
2003-06-23 06:34:21 51°13.68 2°55.77 4 139 20.7 100170 73
2003-06-23 06:34:25 51°13.68 2°55.77 2.6 128 20.7 100170 73
2003-06-23 06:34:29 51°13.68 2°55.77 2.4 130 20.7 100170 73
2003-06-23 06:34:33 51°13.68 2°55.77 2 118 20.7 100170 73
2003-06-23 06:34:39 51°13.68 2°55.77 1.7 116 20.7 100170 73
2003-06-23 06:34:45 51°13.69 2°55.77 1.7 100 20.7 100170 73
2003-06-23 06:34:49 51°13.69 2°55.78 2.4 106 20.7 100170 73
2003-06-23 06:34:53 51°13.69 2°55.78 1.9 122 20.7 100170 73
2003-06-23 06:34:59 51°13.69 2°55.78 1.7 157 20.7 100170 73
2003-06-23 06:35:05 51°13.7 2°55.79 1.7 166 20.7 100170 74
2003-06-23 06:35:09 51°13.7 2°55.79 1.4 189 20.7 100170 74
2003-06-23 06:35:13 51°13.71 2°55.79 1.3 207 20.7 100160 74
2003-06-23 06:35:19 51°13.71 2°55.79 1.6 197 20.7 100160 74
2003-06-23 06:35:25 51°13.72 2°55.79 1.8 201 20.7 100170 74
2003-06-23 06:35:29 51°13.72 2°55.79 2.4 191 20.7 100170 74
2003-06-23 06:35:33 51°13.72 2°55.79 2.4 193 20.7 100170 74
2003-06-23 06:35:39 51°13.72 2°55.79 3.7 211 20.7 100170 74
2003-06-23 06:35:45 51°13.72 2°55.79 3.1 212 20.7 100170 74
2003-06-23 06:35:49 51°13.72 2°55.79 2.8 200 20.7 100170 74
2003-06-23 06:35:53 51°13.72 2°55.79 2.8 213 20.7 100170 74
2003-06-23 06:36:01 51°13.72 2°55.79 3.4 204 20.7 100170 74
2003-06-23 06:36:05 51°13.71 2°55.8 2.7 204 20.7 100170 74
2003-06-23 06:36:11 51°13.71 2°55.8 2.6 196 20.7 100170 74
2003-06-23 06:36:17 51°13.71 2°55.8 2.3 208 20.7 100170 73
2003-06-23 06:36:21 51°13.71 2°55.8 2.7 212 20.7 100170 73
2003-06-23 06:36:27 51°13.71 2°55.8 2.4 205 20.7 100170 73
2003-06-23 06:36:31 51°13.71 2°55.8 2.6 213 20.7 100170 73
2003-06-23 06:36:37 51°13.71 2°55.79 2.6 226 20.7 100170 74
2003-06-23 06:36:43 51°13.71 2°55.79 1.6 227 20.7 100170 74
2003-06-23 06:36:47 51°13.71 2°55.79 1.5 227 20.7 100170 74
2003-06-23 06:36:53 51°13.72 2°55.79 1.2 250 20.7 100170 74
2003-06-23 06:36:57 51°13.72 2°55.79 1.5 253 20.7 100170 74
2003-06-23 06:37:03 51°13.72 2°55.78 2 288 20.7 100170 74
2003-06-23 06:37:09 51°13.73 2°55.77 2.3 284 20.7 100170 74
2003-06-23 06:37:13 51°13.73 2°55.77 1.8 314 20.7 100170 74
2003-06-23 06:37:17 51°13.73 2°55.76 2.3 317 20.7 100170 74
2003-06-23 06:37:21 51°13.74 2°55.76 2.1 292 20.7 100170 74
2003-06-23 06:37:27 51°13.74 2°55.75 2.2 295 20.7 100170 74
2003-06-23 06:37:31 51°13.75 2°55.74 2 309 20.7 100170 74
2003-06-23 06:37:35 51°13.75 2°55.73 2.2 301 20.7 100170 74
2003-06-23 06:37:39 51°13.75 2°55.72 2.6 320 20.7 100170 74
2003-06-23 06:37:45 51°13.76 2°55.71 2.5 342 20.7 100160 74
2003-06-23 06:37:49 51°13.77 2°55.7 2.8 308 20.7 100160 74
2003-06-23 06:37:53 51°13.77 2°55.69 2.8 328 20.8 100170 74
2003-06-23 06:37:59 51°13.78 2°55.68 2.8 338 20.8 100170 74
2003-06-23 06:38:05 51°13.79 2°55.67 3.4 354 20.8 100170 74
2003-06-23 06:38:09 51°13.8 2°55.66 3.2 227 20.8 100170 74
2003-06-23 06:38:13 51°13.8 2°55.66 2.7 228 20.8 100170 74
2003-06-23 06:38:19 51°13.81 2°55.65 1.8 309 20.8 100170 74
2003-06-23 06:38:25 51°13.82 2°55.64 2.2 311 20.8 100170 74
2003-06-23 06:38:29 51°13.83 2°55.63 1.3 317 20.8 100170 74
2003-06-23 06:38:33 51°13.84 2°55.62 1.7 303 20.8 100170 74
2003-06-23 06:38:39 51°13.85 2°55.62 2.3 300 20.8 100170 74
2003-06-23 06:38:45 51°13.86 2°55.61 2.3 279 20.8 100170 74
2003-06-23 06:38:49 51°13.87 2°55.6 1.1 296 20.8 100170 74
2003-06-23 06:38:53 51°13.88 2°55.6 1.3 332 20.8 100170 73
2003-06-23 06:38:59 51°13.89 2°55.59 1.4 356 20.8 100170 73
2003-06-23 06:39:05 51°13.9 2°55.58 2.1 355 20.9 100160 73
2003-06-23 06:39:09 51°13.91 2°55.57 2.3 298 20.9 100160 73
2003-06-23 06:39:13 51°13.92 2°55.57 2.3 312 20.9 100170 73
2003-06-23 06:39:19 51°13.93 2°55.56 1.9 289 20.9 100170 73
2003-06-23 06:39:25 51°13.94 2°55.55 1.6 266 20.9 100170 73
2003-06-23 06:39:29 51°13.95 2°55.54 1.2 294 20.9 100170 73
2003-06-23 06:39:33 51°13.96 2°55.54 0.8 298 20.9 100170 73
2003-06-23 06:39:39 51°13.97 2°55.53 2.1 316 20.9 100170 73
2003-06-23 06:39:45 51°13.98 2°55.52 2.4 228 20.9 100170 73
2003-06-23 06:39:49 51°13.99 2°55.51 1.1 351 20.9 100170 73
2003-06-23 06:39:53 51°14 2°55.51 1.9 346 20.9 100170 73
2003-06-23 06:39:59 51°14.01 2°55.5 2 324 20.9 100170 73
2003-06-23 06:40:05 51°14.02 2°55.49 2.1 331 20.9 100170 73
2003-06-23 06:40:09 51°14.03 2°55.48 1.3 315 20.9 100170 73
2003-06-23 06:40:13 51°14.04 2°55.48 1.1 315 20.9 100170 73
2003-06-23 06:40:19 51°14.05 2°55.47 1.9 320 20.9 100170 73
2003-06-23 06:40:25 51°14.06 2°55.46 1.9 338 20.9 100170 73
2003-06-23 06:40:29 51°14.07 2°55.45 2.1 349 20.9 100170 73
2003-06-23 06:40:33 51°14.08 2°55.45 2.6 336 20.9 100170 73
2003-06-23 06:40:39 51°14.09 2°55.44 2.8 328 20.9 100170 73
2003-06-23 06:40:45 51°14.1 2°55.43 2.9 316 21 100170 73
2003-06-23 06:40:49 51°14.11 2°55.42 2.2 330 21 100170 73
2003-06-23 06:40:53 51°14.12 2°55.42 1.9 333 21 100170 73
2003-06-23 06:40:59 51°14.13 2°55.41 2.5 346 21 100170 73
2003-06-23 06:41:05 51°14.15 2°55.4 2.7 346 21 100160 73
2003-06-23 06:41:09 51°14.15 2°55.39 3 345 21 100160 73
2003-06-23 06:41:13 51°14.16 2°55.39 3.1 336 21 100160 73
2003-06-23 06:41:19 51°14.18 2°55.37 4.2 313 21 100160 73
2003-06-23 06:41:25 51°14.19 2°55.36 3.8 302 21 100160 73
2003-06-23 06:41:29 51°14.2 2°55.35 4 310 21 100160 73
2003-06-23 06:41:33 51°14.2 2°55.35 4.1 312 21.1 100160 73
2003-06-23 06:41:39 51°14.22 2°55.33 3.7 303 21.1 100160 73
2003-06-23 06:41:45 51°14.23 2°55.32 3.5 303 21.1 100160 72
2003-06-23 06:41:49 51°14.23 2°55.31 3.9 304 21.1 100160 72
2003-06-23 06:41:53 51°14.24 2°55.3 3.3 306 21 100160 72
2003-06-23 06:41:59 51°14.25 2°55.28 3.4 334 21 100160 72
2003-06-23 06:42:05 51°14.26 2°55.26 3.6 353 21.1 100150 72
2003-06-23 06:42:09 51°14.27 2°55.25 4.2 340 21.1 100150 72
2003-06-23 06:42:13 51°14.28 2°55.24 4.1 344 21.1 100160 72
2003-06-23 06:42:17 51°14.28 2°55.23 3.9 340 21.1 100160 72
2003-06-23 06:42:25 51°14.3 2°55.2 5.1 331 21.1 100160 72
2003-06-23 06:42:29 51°14.31 2°55.19 3.5 337 21.1 100160 72
2003-06-23 06:42:33 51°14.31 2°55.18 4.6 330 21.1 100150 72
2003-06-23 06:42:37 51°14.32 2°55.16 6.8 330 21.1 100150 72
2003-06-23 06:42:45 51°14.33 2°55.14 6 330 21.1 100160 72
2003-06-23 06:42:49 51°14.34 2°55.12 6 332 21.1 100160 72
2003-06-23 06:42:53 51°14.35 2°55.11 5 340 21.1 100160 72
2003-06-23 06:42:57 51°14.35 2°55.09 4.2 341 21.1 100160 72
2003-06-23 06:43:05 51°14.37 2°55.07 3.9 332 21.1 100160 72
2003-06-23 06:43:09 51°14.38 2°55.06 5.3 313 21.1 100160 72
2003-06-23 06:43:13 51°14.39 2°55.04 4.6 320 21.1 100150 72
2003-06-23 06:43:19 51°14.41 2°55.03 5.1 307 21.1 100150 72
2003-06-23 06:43:25 51°14.42 2°55.01 5.4 309 21.1 100150 71
2003-06-23 06:43:29 51°14.44 2°55 5.4 319 21.1 100150 71
2003-06-23 06:43:33 51°14.45 2°54.99 5.5 41 21.1 100160 71
2003-06-23 06:43:39 51°14.47 2°54.98 4.1 315 21.1 100160 71
2003-06-23 06:43:45 51°14.48 2°54.97 4 318 21.1 100160 71
2003-06-23 06:43:49 51°14.5 2°54.96 4.8 328 21.1 100160 71
2003-06-23 06:43:53 51°14.51 2°54.95 4.8 328 21.1 100160 71
2003-06-23 06:43:59 51°14.53 2°54.93 4.7 335 21.1 100160 71
2003-06-23 06:44:05 51°14.54 2°54.91 4.7 325 21.1 100160 71
2003-06-23 06:44:09 51°14.56 2°54.9 5.1 43 21.1 100160 71
2003-06-23 06:44:13 51°14.57 2°54.89 4.6 43 21.1 100160 71
2003-06-23 06:44:19 51°14.59 2°54.87 5 323 21.1 100160 71
2003-06-23 06:44:25 51°14.61 2°54.85 5.1 319 21.1 100160 71
2003-06-23 06:44:29 51°14.62 2°54.84 5.2 318 21.1 100160 71
2003-06-23 06:44:33 51°14.63 2°54.83 5.3 326 21.1 100160 71
2003-06-23 06:44:39 51°14.65 2°54.81 5.1 333 21.1 100160 71
2003-06-23 06:44:45 51°14.66 2°54.79 5.6 335 21.1 100160 71
2003-06-23 06:44:49 51°14.68 2°54.78 5.7 326 21.1 100160 71
2003-06-23 06:44:53 51°14.69 2°54.77 6 328 21 100160 71
2003-06-23 06:44:59 51°14.7 2°54.75 6.2 331 21 100160 71
2003-06-23 06:45:05 51°14.72 2°54.73 6.3 330 21 100160 71
2003-06-23 06:45:09 51°14.73 2°54.72 6.3 326 21 100160 71
2003-06-23 06:45:13 51°14.74 2°54.7 6 329 21 100160 72
2003-06-23 06:45:19 51°14.76 2°54.68 6.1 317 21 100160 72
2003-06-23 06:45:25 51°14.78 2°54.67 6 318 21 100160 72
2003-06-23 06:45:29 51°14.79 2°54.65 5.7 318 21 100160 72
2003-06-23 06:45:33 51°14.8 2°54.64 5.9 324 21 100170 72
2003-06-23 06:45:39 51°14.82 2°54.62 6.3 326 21 100170 72
2003-06-23 06:45:43 51°14.83 2°54.61 6.4 317 21 100160 72
2003-06-23 06:45:49 51°14.85 2°54.59 5.9 322 21 100160 72
2003-06-23 06:45:53 51°14.86 2°54.58 5.9 321 21 100170 72
2003-06-23 06:45:59 51°14.88 2°54.56 5.5 329 21 100170 72
2003-06-23 06:46:05 51°14.9 2°54.54 4.8 324 21 100170 72
2003-06-23 06:46:09 51°14.91 2°54.53 5.1 325 21 100170 72
2003-06-23 06:46:13 51°14.92 2°54.51 5.6 327 21 100160 72
2003-06-23 06:46:17 51°14.93 2°54.5 6.2 333 21 100160 72
2003-06-23 06:46:25 51°14.96 2°54.47 6 335 21 100160 72
2003-06-23 06:46:29 51°14.97 2°54.46 6.2 331 21 100160 72
2003-06-23 06:46:33 51°14.98 2°54.45 5.4 333 21 100170 72
2003-06-23 06:46:39 51°15 2°54.43 5.7 330 21 100170 72
2003-06-23 06:46:45 51°15.01 2°54.41 5.6 332 21 100160 72
2003-06-23 06:46:49 51°15.03 2°54.39 5.5 329 21 100160 72
2003-06-23 06:46:53 51°15.04 2°54.38 5.8 333 21 100160 72
2003-06-23 06:46:59 51°15.06 2°54.36 5.9 333 21 100160 72
2003-06-23 06:47:05 51°15.07 2°54.34 5.6 333 21 100160 72
2003-06-23 06:47:09 51°15.08 2°54.33 5.3 325 21 100160 72
2003-06-23 06:47:13 51°15.1 2°54.31 5.2 329 21 100160 72
2003-06-23 06:47:19 51°15.11 2°54.29 5.4 324 21 100160 72
2003-06-23 06:47:25 51°15.13 2°54.27 5.2 325 20.9 100170 72
2003-06-23 06:47:29 51°15.14 2°54.26 5.2 325 20.9 100170 72
2003-06-23 06:47:33 51°15.16 2°54.25 5.6 328 20.9 100160 72
2003-06-23 06:47:39 51°15.17 2°54.23 5.3 325 20.9 100160 72
2003-06-23 06:47:45 51°15.19 2°54.21 5.3 319 20.9 100170 72
2003-06-23 06:47:49 51°15.2 2°54.19 5 323 20.9 100170 72
2003-06-23 06:47:53 51°15.22 2°54.18 5.4 323 20.9 100170 72
2003-06-23 06:47:59 51°15.23 2°54.16 5.7 332 20.9 100170 72
2003-06-23 06:48:05 51°15.25 2°54.14 5.5 322 20.9 100160 72
2003-06-23 06:48:09 51°15.27 2°54.13 6 332 20.9 100160 72
2003-06-23 06:48:13 51°15.28 2°54.12 5.7 328 20.9 100170 72
2003-06-23 06:48:19 51°15.3 2°54.1 6.2 334 20.9 100170 72
2003-06-23 06:48:25 51°15.31 2°54.08 6.2 335 20.9 100170 72
2003-06-23 06:48:29 51°15.33 2°54.06 5.9 328 20.9 100170 72
2003-06-23 06:48:33 51°15.34 2°54.05 5.8 321 20.9 100170 72
2003-06-23 06:48:37 51°15.35 2°54.04 5.3 329 20.9 100170 72
2003-06-23 06:48:45 51°15.38 2°54.02 4.9 332 20.9 100170 72
2003-06-23 06:48:49 51°15.39 2°54 5.6 331 20.9 100170 72
2003-06-23 06:48:53 51°15.4 2°53.99 5.8 331 20.9 100170 72
2003-06-23 06:48:59 51°15.42 2°53.98 5.8 328 20.9 100170 72
2003-06-23 06:49:05 51°15.44 2°53.96 6 338 20.9 100170 72
2003-06-23 06:49:09 51°15.45 2°53.95 5.3 327 20.9 100170 72
2003-06-23 06:49:13 51°15.47 2°53.93 5.4 329 20.9 100170 73
2003-06-23 06:49:19 51°15.49 2°53.92 4.9 333 20.9 100170 73
2003-06-23 06:49:25 51°15.51 2°53.9 5.3 337 20.8 100170 73
2003-06-23 06:49:29 51°15.52 2°53.89 5.6 339 20.8 100170 73
2003-06-23 06:49:33 51°15.53 2°53.88 6.3 338 20.8 100170 73
2003-06-23 06:49:39 51°15.55 2°53.86 5.7 330 20.8 100170 73
2003-06-23 06:49:45 51°15.57 2°53.84 6.1 334 20.8 100170 73
2003-06-23 06:49:49 51°15.58 2°53.83 5.8 335 20.8 100170 73
2003-06-23 06:49:53 51°15.6 2°53.82 5.8 335 20.8 100170 73
2003-06-23 06:49:59 51°15.62 2°53.8 6.1 332 20.8 100170 73
2003-06-23 06:50:05 51°15.64 2°53.78 6.2 333 20.8 100170 73
2003-06-23 06:50:09 51°15.65 2°53.77 5.6 331 20.8 100170 73
2003-06-23 06:50:13 51°15.66 2°53.76 5.9 330 20.8 100170 73
2003-06-23 06:50:19 51°15.68 2°53.74 5.7 314 20.8 100170 73
2003-06-23 06:50:25 51°15.7 2°53.72 5.1 315 20.8 100180 74
2003-06-23 06:50:29 51°15.72 2°53.71 5 323 20.8 100180 74
2003-06-23 06:50:33 51°15.73 2°53.7 4.8 331 20.8 100170 74
2003-06-23 06:50:39 51°15.75 2°53.68 5.6 330 20.8 100170 74
2003-06-23 06:50:45 51°15.77 2°53.67 5.3 333 20.8 100180 73
2003-06-23 06:50:49 51°15.78 2°53.65 6 42 20.8 100180 73
2003-06-23 06:50:53 51°15.79 2°53.64 5.9 43 20.7 100170 73
2003-06-23 06:50:59 51°15.81 2°53.62 4.5 314 20.7 100170 73
2003-06-23 06:51:05 51°15.83 2°53.61 5.2 320 20.7 100180 74
2003-06-23 06:51:09 51°15.85 2°53.6 5.7 325 20.7 100180 74
2003-06-23 06:51:13 51°15.86 2°53.58 5.4 326 20.7 100170 74
2003-06-23 06:51:19 51°15.88 2°53.57 6.1 324 20.7 100170 74
2003-06-23 06:51:25 51°15.9 2°53.55 5.7 321 20.7 100180 74
2003-06-23 06:51:29 51°15.91 2°53.54 6.1 320 20.7 100180 74
2003-06-23 06:51:33 51°15.93 2°53.52 5.7 322 20.7 100180 74
2003-06-23 06:51:39 51°15.95 2°53.51 5.5 321 20.7 100180 74
2003-06-23 06:51:45 51°15.97 2°53.49 5.4 322 20.7 100180 74
2003-06-23 06:51:49 51°15.98 2°53.48 5.3 322 20.7 100180 74
2003-06-23 06:51:53 51°15.99 2°53.47 5.6 323 20.7 100180 74
2003-06-23 06:51:59 51°16.01 2°53.45 5.3 327 20.7 100180 74
2003-06-23 06:52:05 51°16.03 2°53.43 5.4 321 20.7 100180 74
2003-06-23 06:52:09 51°16.04 2°53.42 5.3 325 20.7 100180 74
2003-06-23 06:52:13 51°16.06 2°53.41 6 320 20.7 100180 74
2003-06-23 06:52:19 51°16.08 2°53.39 5.6 324 20.7 100180 74
2003-06-23 06:52:25 51°16.1 2°53.37 5.6 319 20.7 100190 74
2003-06-23 06:52:29 51°16.11 2°53.36 5.9 40 20.7 100190 74
2003-06-23 06:52:33 51°16.12 2°53.35 5.7 322 20.6 100180 74
2003-06-23 06:52:39 51°16.14 2°53.33 6 320 20.6 100180 74
2003-06-23 06:52:45 51°16.16 2°53.31 5.7 329 20.6 100190 75
2003-06-23 06:52:49 51°16.18 2°53.3 5.9 322 20.6 100190 75
2003-06-23 06:52:53 51°16.19 2°53.29 6.2 317 20.6 100180 75
2003-06-23 06:52:59 51°16.21 2°53.27 5.5 316 20.6 100180 75
2003-06-23 06:53:05 51°16.23 2°53.25 5.7 320 20.6 100190 75
2003-06-23 06:53:09 51°16.25 2°53.24 6 320 20.6 100190 75
2003-06-23 06:53:13 51°16.26 2°53.23 6.4 324 20.6 100190 75
2003-06-23 06:53:19 51°16.28 2°53.21 6.3 324 20.6 100190 75
2003-06-23 06:53:25 51°16.3 2°53.19 5.8 321 20.6 100190 75
2003-06-23 06:53:29 51°16.31 2°53.18 6 320 20.6 100190 75
2003-06-23 06:53:33 51°16.32 2°53.17 5.8 323 20.6 100190 75
2003-06-23 06:53:39 51°16.34 2°53.15 6.1 323 20.6 100190 75
2003-06-23 06:53:45 51°16.37 2°53.13 6.1 320 20.5 100190 75
2003-06-23 06:53:49 51°16.38 2°53.12 6 320 20.5 100190 75
2003-06-23 06:53:53 51°16.39 2°53.11 5.9 321 20.6 100190 75
2003-06-23 06:53:59 51°16.41 2°53.1 5.5 323 20.6 100190 75
2003-06-23 06:54:05 51°16.43 2°53.08 6.2 328 20.5 100190 75
2003-06-23 06:54:09 51°16.45 2°53.07 6 323 20.5 100190 75
2003-06-23 06:54:13 51°16.46 2°53.06 6.3 322 20.5 100190 75
2003-06-23 06:54:19 51°16.48 2°53.05 6.1 330 20.5 100190 75
2003-06-23 06:54:25 51°16.5 2°53.03 6.6 327 20.5 100190 75
2003-06-23 06:54:29 51°16.52 2°53.02 5.6 322 20.5 100190 75
2003-06-23 06:54:33 51°16.53 2°53.01 6.4 324 20.5 100190 76
2003-06-23 06:54:39 51°16.55 2°53 6.4 327 20.5 100190 76
2003-06-23 06:54:45 51°16.57 2°52.98 5.9 329 20.5 100200 76
2003-06-23 06:54:49 51°16.59 2°52.97 6.2 326 20.5 100200 76
2003-06-23 06:54:53 51°16.6 2°52.96 6.4 327 20.5 100200 76
2003-06-23 06:54:59 51°16.62 2°52.94 6.2 323 20.5 100200 76
2003-06-23 06:55:05 51°16.64 2°52.93 6.3 326 20.5 100200 76
2003-06-23 06:55:09 51°16.66 2°52.92 6.2 323 20.5 100200 76
2003-06-23 06:55:13 51°16.67 2°52.91 6.5 323 20.5 100200 76
2003-06-23 06:55:19 51°16.69 2°52.89 6.4 322 20.5 100200 76
2003-06-23 06:55:25 51°16.71 2°52.88 6.4 323 20.5 100200 76
2003-06-23 06:55:29 51°16.73 2°52.87 6 324 20.5 100200 76
2003-06-23 06:55:33 51°16.74 2°52.86 6.3 322 20.5 100200 76
2003-06-23 06:55:39 51°16.76 2°52.84 6.3 326 20.5 100200 76
2003-06-23 06:55:45 51°16.79 2°52.82 6.5 321 20.5 100200 76
2003-06-23 06:55:49 51°16.8 2°52.81 6.6 326 20.5 100200 76
2003-06-23 06:55:53 51°16.81 2°52.8 6.5 327 20.4 100210 76
2003-06-23 06:55:59 51°16.83 2°52.79 6.3 323 20.4 100210 76
2003-06-23 06:56:05 51°16.86 2°52.77 7 322 20.4 100200 76
2003-06-23 06:56:09 51°16.87 2°52.76 6.4 326 20.4 100200 76
2003-06-23 06:56:13 51°16.88 2°52.75 6.4 323 20.4 100210 76
2003-06-23 06:56:19 51°16.91 2°52.74 5.9 327 20.4 100210 76
2003-06-23 06:56:25 51°16.93 2°52.72 6.5 327 20.4 100210 76
2003-06-23 06:56:29 51°16.94 2°52.71 6.5 327 20.4 100210 76
2003-06-23 06:56:33 51°16.96 2°52.7 6.7 329 20.4 100210 76
2003-06-23 06:56:39 51°16.98 2°52.68 6.7 327 20.4 100210 76
2003-06-23 06:56:45 51°17 2°52.67 6.5 328 20.4 100210 76
2003-06-23 06:56:49 51°17.01 2°52.66 6.7 326 20.4 100210 76
2003-06-23 06:56:53 51°17.03 2°52.65 6.6 328 20.4 100210 77
2003-06-23 06:56:59 51°17.05 2°52.63 6.5 329 20.4 100210 77
2003-06-23 06:57:05 51°17.07 2°52.62 6.7 330 20.4 100210 77
2003-06-23 06:57:09 51°17.08 2°52.61 6.6 329 20.4 100210 77
2003-06-23 06:57:13 51°17.1 2°52.6 6.7 327 20.4 100210 77
2003-06-23 06:57:19 51°17.12 2°52.58 6.8 328 20.4 100210 77
2003-06-23 06:57:25 51°17.14 2°52.56 6.4 327 20.4 100210 77
2003-06-23 06:57:29 51°17.15 2°52.55 6.5 328 20.4 100210 77
2003-06-23 06:57:33 51°17.17 2°52.54 6.9 327 20.4 100210 77
2003-06-23 06:57:39 51°17.19 2°52.53 6.8 332 20.4 100210 77
2003-06-23 06:57:45 51°17.21 2°52.51 6.6 334 20.4 100210 77
2003-06-23 06:57:49 51°17.22 2°52.5 6.9 335 20.4 100210 77
2003-06-23 06:57:53 51°17.24 2°52.49 6.2 333 20.4 100210 77
2003-06-23 06:57:59 51°17.26 2°52.48 6.5 329 20.4 100210 77
2003-06-23 06:58:05 51°17.28 2°52.46 6.2 332 20.4 100210 77
2003-06-23 06:58:09 51°17.29 2°52.45 6.5 329 20.4 100210 77
2003-06-23 06:58:13 51°17.31 2°52.44 6.2 325 20.4 100210 77
2003-06-23 06:58:19 51°17.33 2°52.42 6.8 330 20.4 100210 77
2003-06-23 06:58:25 51°17.35 2°52.41 6.4 332 20.4 100210 77
2003-06-23 06:58:29 51°17.37 2°52.4 6.4 332 20.4 100210 77
2003-06-23 06:58:33 51°17.38 2°52.39 6.9 331 20.4 100210 77
2003-06-23 06:58:39 51°17.4 2°52.37 6.4 332 20.4 100210 77
2003-06-23 06:58:45 51°17.42 2°52.36 6.5 329 20.4 100210 77
2003-06-23 06:58:49 51°17.44 2°52.35 6.5 333 20.4 100210 77
2003-06-23 06:58:53 51°17.45 2°52.34 6.2 329 20.4 100210 77
2003-06-23 06:58:59 51°17.47 2°52.32 6.5 333 20.4 100210 77
2003-06-23 06:59:05 51°17.49 2°52.31 6.6 330 20.4 100210 77
2003-06-23 06:59:09 51°17.51 2°52.3 6.3 329 20.4 100210 77
2003-06-23 06:59:13 51°17.52 2°52.29 6.4 330 20.3 100210 77
2003-06-23 06:59:19 51°17.54 2°52.27 6.6 328 20.3 100210 77
2003-06-23 06:59:25 51°17.56 2°52.26 6.3 327 20.3 100210 77
2003-06-23 06:59:29 51°17.58 2°52.25 6.4 329 20.3 100210 77
2003-06-23 06:59:33 51°17.59 2°52.23 6.2 329 20.3 100210 77
2003-06-23 06:59:39 51°17.61 2°52.22 6.3 328 20.3 100210 77
2003-06-23 06:59:45 51°17.63 2°52.2 6.4 331 20.4 100210 77
2003-06-23 06:59:49 51°17.65 2°52.19 6.2 329 20.4 100210 77
2003-06-23 06:59:53 51°17.66 2°52.18 6.5 325 20.3 100210 77
2003-06-23 06:59:59 51°17.68 2°52.17 6 329 20.3 100210 77
2003-06-23 07:00:05 51°17.7 2°52.15 5.9 324 20.3 100210 77
2003-06-23 07:00:09 51°17.72 2°52.14 5.8 326 20.3 100210 77
2003-06-23 07:00:13 51°17.73 2°52.13 6.2 326 20.3 100210 77
2003-06-23 07:00:19 51°17.75 2°52.12 6.1 320 20.3 100210 77
2003-06-23 07:00:25 51°17.77 2°52.1 5.4 322 20.3 100210 77
2003-06-23 07:00:29 51°17.79 2°52.09 5.6 320 20.3 100210 77
2003-06-23 07:00:33 51°17.8 2°52.08 5.2 316 20.3 100210 77
2003-06-23 07:00:39 51°17.82 2°52.06 5.8 319 20.3 100210 77
2003-06-23 07:00:45 51°17.84 2°52.05 5.8 328 20.3 100200 77
2003-06-23 07:00:49 51°17.86 2°52.04 5.7 319 20.3 100200 77
2003-06-23 07:00:53 51°17.87 2°52.03 5.3 319 20.3 100210 77
2003-06-23 07:00:59 51°17.89 2°52.01 5.8 322 20.3 100210 77
2003-06-23 07:01:05 51°17.91 2°52 5.7 330 20.3 100210 77
2003-06-23 07:01:09 51°17.93 2°51.99 6 323 20.3 100210 77
2003-06-23 07:01:13 51°17.94 2°51.97 6.3 320 20.3 100210 77
2003-06-23 07:01:19 51°17.96 2°51.95 7.4 322 20.3 100210 77
2003-06-23 07:01:25 51°17.97 2°51.93 6.7 332 20.3 100200 77
2003-06-23 07:01:29 51°17.98 2°51.91 7.3 324 20.3 100200 77
2003-06-23 07:01:33 51°17.99 2°51.9 7.5 325 20.3 100200 77
2003-06-23 07:01:39 51°18.01 2°51.87 7.9 328 20.3 100200 77
2003-06-23 07:01:45 51°18.02 2°51.84 7.7 328 20.3 100200 77
2003-06-23 07:01:49 51°18.03 2°51.82 7.8 331 20.3 100200 77
2003-06-23 07:01:53 51°18.04 2°51.81 7.9 329 20.3 100200 77
2003-06-23 07:01:59 51°18.06 2°51.78 7.9 327 20.3 100200 77
2003-06-23 07:02:05 51°18.07 2°51.75 8 330 20.3 100200 77
2003-06-23 07:02:09 51°18.08 2°51.73 8.6 326 20.3 100200 77
2003-06-23 07:02:13 51°18.09 2°51.71 8.3 329 20.3 100190 77
2003-06-23 07:02:19 51°18.1 2°51.69 8.4 330 20.3 100190 77
2003-06-23 07:02:25 51°18.12 2°51.66 8.3 330 20.3 100190 78
2003-06-23 07:02:29 51°18.13 2°51.64 8.4 330 20.3 100190 78
2003-06-23 07:02:33 51°18.14 2°51.62 8.2 331 20.3 100200 78
2003-06-23 07:02:39 51°18.15 2°51.6 8.8 330 20.3 100200 78
2003-06-23 07:02:45 51°18.16 2°51.57 8.5 331 20.3 100200 78
2003-06-23 07:02:49 51°18.17 2°51.55 8.3 330 20.3 100200 78
2003-06-23 07:02:53 51°18.18 2°51.53 8.7 328 20.3 100200 78
2003-06-23 07:02:59 51°18.2 2°51.5 8.7 327 20.3 100200 78
2003-06-23 07:03:05 51°18.21 2°51.48 8.3 327 20.3 100190 78
2003-06-23 07:03:09 51°18.22 2°51.46 8.6 330 20.3 100190 78
2003-06-23 07:03:13 51°18.23 2°51.44 8.3 327 20.3 100200 78
2003-06-23 07:03:19 51°18.25 2°51.41 8.4 331 20.3 100200 78
2003-06-23 07:03:25 51°18.26 2°51.38 8.4 331 20.2 100200 78
2003-06-23 07:03:29 51°18.27 2°51.37 8.4 332 20.2 100200 78
2003-06-23 07:03:33 51°18.28 2°51.35 8.9 329 20.3 100200 78
2003-06-23 07:03:39 51°18.29 2°51.32 8.1 332 20.3 100200 78
2003-06-23 07:03:45 51°18.31 2°51.29 8.3 329 20.3 100200 78
2003-06-23 07:03:49 51°18.32 2°51.28 8.4 332 20.3 100200 78
2003-06-23 07:03:53 51°18.33 2°51.26 8 332 20.3 100200 78
2003-06-23 07:03:59 51°18.34 2°51.23 8.1 331 20.3 100200 78
2003-06-23 07:04:05 51°18.36 2°51.2 8.2 333 20.2 100200 78
2003-06-23 07:04:09 51°18.37 2°51.18 7.8 333 20.2 100200 78
2003-06-23 07:04:13 51°18.38 2°51.17 8.1 332 20.2 100190 78
2003-06-23 07:04:19 51°18.39 2°51.14 8.2 331 20.2 100190 78
2003-06-23 07:04:25 51°18.41 2°51.11 8.2 333 20.2 100200 78
2003-06-23 07:04:29 51°18.42 2°51.09 8.5 331 20.2 100200 78
2003-06-23 07:04:33 51°18.43 2°51.08 8.4 328 20.2 100200 78
2003-06-23 07:04:39 51°18.44 2°51.05 8.5 330 20.2 100200 78
2003-06-23 07:04:45 51°18.45 2°51.02 8.5 327 20.2 100190 78
2003-06-23 07:04:49 51°18.46 2°51.01 8.5 329 20.2 100190 78
2003-06-23 07:04:53 51°18.47 2°50.99 8.5 330 20.2 100190 78
2003-06-23 07:04:59 51°18.49 2°50.96 8.1 330 20.2 100190 78
2003-06-23 07:05:05 51°18.5 2°50.94 8.6 328 20.2 100200 78
2003-06-23 07:05:09 51°18.51 2°50.92 8.1 334 20.2 100200 78
2003-06-23 07:05:13 51°18.52 2°50.9 8.1 331 20.2 100200 78
2003-06-23 07:05:19 51°18.54 2°50.88 8.2 332 20.2 100200 78
2003-06-23 07:05:25 51°18.55 2°50.85 8.1 328 20.2 100200 78
2003-06-23 07:05:29 51°18.56 2°50.83 8.1 327 20.2 100200 78
2003-06-23 07:05:33 51°18.57 2°50.82 8.5 335 20.2 100200 78
2003-06-23 07:05:39 51°18.58 2°50.79 8.5 330 20.2 100200 78
2003-06-23 07:05:45 51°18.6 2°50.76 8 334 20.2 100200 78
2003-06-23 07:05:49 51°18.61 2°50.75 8.4 333 20.2 100200 78
2003-06-23 07:05:53 51°18.62 2°50.73 8 331 20.2 100200 78
2003-06-23 07:05:59 51°18.63 2°50.71 8.5 335 20.2 100200 78
2003-06-23 07:06:05 51°18.65 2°50.68 8 328 20.2 100200 78
2003-06-23 07:06:09 51°18.65 2°50.66 8.1 335 20.2 100200 78
2003-06-23 07:06:13 51°18.66 2°50.64 8.2 328 20.2 100200 78
2003-06-23 07:06:19 51°18.68 2°50.62 8.2 333 20.2 100200 78
2003-06-23 07:06:25 51°18.69 2°50.59 8.2 332 20.2 100200 78
2003-06-23 07:06:29 51°18.7 2°50.58 8.5 333 20.2 100200 78
2003-06-23 07:06:33 51°18.71 2°50.56 8.2 335 20.2 100200 78
2003-06-23 07:06:39 51°18.73 2°50.53 8.2 334 20.2 100200 78
2003-06-23 07:06:45 51°18.74 2°50.51 8.4 334 20.2 100200 78
2003-06-23 07:06:49 51°18.75 2°50.49 8.7 334 20.2 100200 78
2003-06-23 07:06:53 51°18.76 2°50.47 8.2 334 20.2 100200 78
2003-06-23 07:06:59 51°18.78 2°50.45 8.5 337 20.2 100200 78
2003-06-23 07:07:05 51°18.79 2°50.42 8.7 332 20.1 100200 78
2003-06-23 07:07:09 51°18.8 2°50.4 8.8 331 20.1 100200 78
2003-06-23 07:07:13 51°18.81 2°50.38 8.9 334 20.1 100200 78
2003-06-23 07:07:19 51°18.82 2°50.36 8.3 334 20.1 100200 78
2003-06-23 07:07:25 51°18.83 2°50.33 8.8 332 20.1 100200 78
2003-06-23 07:07:29 51°18.84 2°50.31 8.6 334 20.1 100200 78
2003-06-23 07:07:33 51°18.85 2°50.3 8.5 330 20.1 100200 78
2003-06-23 07:07:39 51°18.87 2°50.27 8.2 334 20.1 100200 78
2003-06-23 07:07:45 51°18.88 2°50.24 8.7 330 20.1 100200 78
2003-06-23 07:07:49 51°18.89 2°50.23 9.1 332 20.1 100200 78
2003-06-23 07:07:53 51°18.9 2°50.21 8.6 335 20.1 100200 78
2003-06-23 07:07:59 51°18.91 2°50.18 8.7 336 20.1 100200 78
2003-06-23 07:08:05 51°18.93 2°50.16 8.8 330 20.1 100200 78
2003-06-23 07:08:09 51°18.94 2°50.14 8.3 335 20.1 100200 78
2003-06-23 07:08:13 51°18.95 2°50.12 8.7 330 20.1 100200 78
2003-06-23 07:08:19 51°18.96 2°50.1 8.7 331 20.1 100200 78
2003-06-23 07:08:25 51°18.97 2°50.07 8.7 333 20.1 100200 78
2003-06-23 07:08:29 51°18.98 2°50.05 8.4 332 20.1 100200 78
2003-06-23 07:08:33 51°18.99 2°50.03 8.2 333 20 100200 78
2003-06-23 07:08:39 51°19.01 2°50.01 8.2 336 20 100200 78
2003-06-23 07:08:45 51°19.02 2°49.98 8.8 334 20 100200 78
2003-06-23 07:08:49 51°19.03 2°49.97 8.1 337 20 100200 78
2003-06-23 07:08:53 51°19.04 2°49.95 8.6 331 20 100190 79
2003-06-23 07:08:59 51°19.05 2°49.92 8.7 331 20 100190 79
2003-06-23 07:09:05 51°19.06 2°49.9 8.6 330 20 100190 79
2003-06-23 07:09:09 51°19.07 2°49.88 8.3 331 20 100190 79
2003-06-23 07:09:13 51°19.08 2°49.86 7.9 332 20 100190 79
2003-06-23 07:09:19 51°19.09 2°49.84 8.1 334 20 100190 79
2003-06-23 07:09:25 51°19.11 2°49.82 8.1 336 20 100190 79
2003-06-23 07:09:29 51°19.12 2°49.8 7.8 334 20 100190 79
2003-06-23 07:09:33 51°19.13 2°49.78 8.1 335 20 100190 79
2003-06-23 07:09:39 51°19.14 2°49.76 7.9 336 20 100190 79
2003-06-23 07:09:45 51°19.15 2°49.74 8.6 335 19.9 100190 79
2003-06-23 07:09:49 51°19.16 2°49.72 8.4 332 19.9 100190 79
2003-06-23 07:09:53 51°19.17 2°49.7 8.8 335 20 100190 79
2003-06-23 07:09:59 51°19.18 2°49.68 7.8 336 20 100190 79
2003-06-23 07:10:05 51°19.2 2°49.65 8.3 334 19.9 100190 79
2003-06-23 07:10:09 51°19.21 2°49.64 8.3 334 19.9 100190 79
2003-06-23 07:10:13 51°19.21 2°49.62 8.3 333 19.9 100190 79
2003-06-23 07:10:19 51°19.23 2°49.6 8.7 334 19.9 100190 79
2003-06-23 07:10:25 51°19.24 2°49.57 8.2 329 19.9 100190 79
2003-06-23 07:10:29 51°19.25 2°49.55 8 333 19.9 100190 79
2003-06-23 07:10:33 51°19.26 2°49.54 8.5 329 19.9 100190 79
2003-06-23 07:10:39 51°19.27 2°49.51 8 332 19.9 100190 79
2003-06-23 07:10:45 51°19.29 2°49.49 8.3 330 19.9 100190 79
2003-06-23 07:10:49 51°19.3 2°49.47 7.8 334 19.9 100190 79
2003-06-23 07:10:53 51°19.3 2°49.46 8 330 19.9 100190 79
2003-06-23 07:10:59 51°19.32 2°49.43 7.4 332 19.9 100190 79
2003-06-23 07:11:05 51°19.33 2°49.41 8.1 329 19.9 100190 79
2003-06-23 07:11:09 51°19.34 2°49.39 8.2 332 19.9 100190 79
2003-06-23 07:11:13 51°19.35 2°49.37 8.1 330 19.9 100190 79
2003-06-23 07:11:19 51°19.36 2°49.35 7.8 327 19.9 100190 79
2003-06-23 07:11:25 51°19.38 2°49.32 8 330 19.9 100180 79
2003-06-23 07:11:29 51°19.39 2°49.31 7.7 325 19.9 100180 79
2003-06-23 07:11:33 51°19.4 2°49.29 7.6 331 19.9 100180 79
2003-06-23 07:11:39 51°19.41 2°49.27 7.8 330 19.9 100180 79
2003-06-23 07:11:45 51°19.42 2°49.24 7.2 328 19.8 100180 79
2003-06-23 07:11:49 51°19.43 2°49.22 7.4 327 19.8 100180 79
2003-06-23 07:11:53 51°19.44 2°49.21 8.1 326 19.8 100180 79
2003-06-23 07:11:59 51°19.45 2°49.18 7.8 324 19.8 100180 79
2003-06-23 07:12:05 51°19.47 2°49.16 7.3 327 19.8 100180 79
2003-06-23 07:12:09 51°19.48 2°49.14 8.1 325 19.8 100180 79
2003-06-23 07:12:13 51°19.49 2°49.12 8.6 327 19.8 100180 79
2003-06-23 07:12:19 51°19.5 2°49.1 8.7 337 19.8 100180 79
2003-06-23 07:12:25 51°19.51 2°49.07 8.3 331 19.8 100180 79
2003-06-23 07:12:29 51°19.51 2°49.05 8.5 336 19.8 100180 79
2003-06-23 07:12:33 51°19.52 2°49.03 9.5 337 19.8 100180 79
2003-06-23 07:12:39 51°19.52 2°49 9.2 334 19.8 100180 79
2003-06-23 07:12:45 51°19.53 2°48.97 9.5 335 19.8 100180 79
2003-06-23 07:12:49 51°19.53 2°48.95 9.2 339 19.8 100180 79
2003-06-23 07:12:53 51°19.54 2°48.93 9.8 337 19.8 100180 79
2003-06-23 07:12:57 51°19.54 2°48.91 9.2 338 19.8 100180 79
2003-06-23 07:13:05 51°19.55 2°48.87 9.7 339 19.8 100180 79
2003-06-23 07:13:09 51°19.55 2°48.85 10.1 338 19.8 100180 79
2003-06-23 07:13:13 51°19.56 2°48.83 10 339 19.8 100180 79
2003-06-23 07:13:19 51°19.56 2°48.8 10.3 339 19.8 100180 79
2003-06-23 07:13:25 51°19.57 2°48.77 9.9 342 19.8 100180 79
2003-06-23 07:13:29 51°19.57 2°48.74 10.4 339 19.8 100180 79
2003-06-23 07:13:33 51°19.57 2°48.72 10.6 340 19.8 100180 79
2003-06-23 07:13:39 51°19.58 2°48.69 10.3 341 19.8 100180 79
2003-06-23 07:13:45 51°19.58 2°48.66 10.4 339 19.8 100180 79
2003-06-23 07:13:49 51°19.59 2°48.64 10 340 19.8 100180 79
2003-06-23 07:13:53 51°19.59 2°48.62 10.5 340 19.8 100180 79
2003-06-23 07:13:59 51°19.6 2°48.59 10.2 345 19.8 100180 79
2003-06-23 07:14:05 51°19.6 2°48.55 10.2 341 19.8 100180 79
2003-06-23 07:14:09 51°19.6 2°48.53 10.1 342 19.8 100180 79
2003-06-23 07:14:13 51°19.61 2°48.51 10.3 341 19.8 100190 79
2003-06-23 07:14:17 51°19.61 2°48.49 10.6 342 19.8 100190 79
2003-06-23 07:14:25 51°19.62 2°48.45 10.9 339 19.8 100180 79
2003-06-23 07:14:29 51°19.62 2°48.43 10.3 344 19.8 100180 79
2003-06-23 07:14:33 51°19.63 2°48.41 10.4 344 19.8 100190 79
2003-06-23 07:14:39 51°19.63 2°48.37 10.5 340 19.8 100190 79
2003-06-23 07:14:45 51°19.64 2°48.34 10.7 342 19.8 100190 79
2003-06-23 07:14:49 51°19.64 2°48.32 10.4 342 19.8 100190 79
2003-06-23 07:14:53 51°19.65 2°48.3 10.8 343 19.8 100190 79
2003-06-23 07:14:59 51°19.65 2°48.27 11.1 341 19.8 100190 79
2003-06-23 07:15:05 51°19.66 2°48.23 11.6 343 19.8 100190 79
2003-06-23 07:15:09 51°19.66 2°48.21 11.4 343 19.8 100190 79
2003-06-23 07:15:13 51°19.66 2°48.19 11.6 344 19.8 100190 79
2003-06-23 07:15:19 51°19.67 2°48.16 11.7 343 19.8 100190 79
2003-06-23 07:15:25 51°19.67 2°48.12 12 343 19.7 100190 79
2003-06-23 07:15:29 51°19.68 2°48.1 12.5 345 19.7 100190 79
2003-06-23 07:15:33 51°19.68 2°48.08 12.2 346 19.7 100200 79
2003-06-23 07:15:39 51°19.69 2°48.05 12.5 345 19.7 100200 79
2003-06-23 07:15:45 51°19.69 2°48.01 13.1 343 19.7 100200 80
2003-06-23 07:15:49 51°19.7 2°47.99 13.4 347 19.7 100200 80
2003-06-23 07:15:53 51°19.7 2°47.97 13.8 346 19.7 100200 80
2003-06-23 07:15:59 51°19.71 2°47.94 14.4 346 19.7 100200 80
2003-06-23 07:16:05 51°19.71 2°47.9 14.3 346 19.7 100210 80
2003-06-23 07:16:09 51°19.72 2°47.88 14.7 349 19.7 100210 80
2003-06-23 07:16:13 51°19.72 2°47.86 15.4 347 19.7 100210 80
2003-06-23 07:16:17 51°19.73 2°47.84 14.7 347 19.7 100210 80
2003-06-23 07:16:25 51°19.73 2°47.79 15.4 346 19.7 100210 80
2003-06-23 07:16:29 51°19.74 2°47.77 15.6 348 19.7 100210 80
2003-06-23 07:16:33 51°19.74 2°47.75 15.9 348 19.7 100210 80
2003-06-23 07:16:39 51°19.75 2°47.72 16.6 348 19.7 100210 80
2003-06-23 07:16:45 51°19.75 2°47.68 16.6 349 19.7 100220 80
2003-06-23 07:16:49 51°19.76 2°47.66 16.4 349 19.7 100220 80
2003-06-23 07:16:53 51°19.76 2°47.64 16.4 351 19.7 100220 80
2003-06-23 07:16:59 51°19.77 2°47.61 16.9 348 19.7 100220 80
2003-06-23 07:17:05 51°19.77 2°47.57 16.6 349 19.7 100220 80
2003-06-23 07:17:09 51°19.78 2°47.55 16.7 345 19.7 100220 80
2003-06-23 07:17:13 51°19.78 2°47.53 16.4 347 19.7 100230 80
2003-06-23 07:17:17 51°19.79 2°47.51 16.1 348 19.7 100230 80
2003-06-23 07:17:25 51°19.79 2°47.46 15.9 349 19.7 100220 80
2003-06-23 07:17:29 51°19.8 2°47.44 15.8 349 19.7 100220 80
2003-06-23 07:17:33 51°19.8 2°47.42 16.1 352 19.7 100230 80
2003-06-23 07:17:39 51°19.81 2°47.39 15.9 348 19.7 100230 80
2003-06-23 07:17:45 51°19.81 2°47.35 15.7 347 19.6 100230 80
2003-06-23 07:17:49 51°19.82 2°47.33 14.6 351 19.6 100230 80
2003-06-23 07:17:53 51°19.82 2°47.31 15.3 351 19.6 100230 80
2003-06-23 07:17:59 51°19.83 2°47.28 16.2 350 19.6 100230 80
2003-06-23 07:18:05 51°19.83 2°47.24 15.7 350 19.6 100230 80
2003-06-23 07:18:09 51°19.84 2°47.22 15.8 350 19.6 100230 80
2003-06-23 07:18:13 51°19.84 2°47.2 14.7 353 19.6 100220 80
2003-06-23 07:18:19 51°19.85 2°47.17 14.7 350 19.6 100220 80
2003-06-23 07:18:25 51°19.85 2°47.13 15.6 354 19.6 100230 80
2003-06-23 07:18:29 51°19.86 2°47.11 15.1 352 19.6 100230 80
2003-06-23 07:18:33 51°19.86 2°47.09 15.5 353 19.6 100230 80
2003-06-23 07:18:39 51°19.86 2°47.06 14.3 352 19.6 100230 80
2003-06-23 07:18:45 51°19.87 2°47.02 15.3 353 19.6 100230 80
2003-06-23 07:18:49 51°19.87 2°47 14.9 351 19.6 100230 80
2003-06-23 07:18:53 51°19.87 2°46.98 16.3 353 19.5 100230 80
2003-06-23 07:18:57 51°19.87 2°46.95 15.9 351 19.5 100230 80
2003-06-23 07:19:05 51°19.87 2°46.91 15.5 351 19.5 100230 81
2003-06-23 07:19:09 51°19.88 2°46.89 17.4 350 19.5 100230 81
2003-06-23 07:19:13 51°19.88 2°46.86 16.6 352 19.5 100230 80
2003-06-23 07:19:19 51°19.88 2°46.83 15 351 19.5 100230 80
2003-06-23 07:19:25 51°19.89 2°46.8 16.5 352 19.5 100220 80
2003-06-23 07:19:29 51°19.89 2°46.78 16.5 352 19.5 100220 80
2003-06-23 07:19:33 51°19.89 2°46.75 15.5 352 19.4 100230 80
2003-06-23 07:19:39 51°19.89 2°46.72 16.1 350 19.4 100230 80
2003-06-23 07:19:45 51°19.9 2°46.69 16.3 352 19.4 100230 81
2003-06-23 07:19:49 51°19.9 2°46.67 16.4 350 19.4 100230 81
2003-06-23 07:19:53 51°19.9 2°46.64 15 351 19.4 100230 80
2003-06-23 07:19:59 51°19.9 2°46.61 15.7 349 19.4 100230 80
2003-06-23 07:20:05 51°19.91 2°46.58 15 353 19.4 100230 81
2003-06-23 07:20:09 51°19.91 2°46.55 15.4 354 19.4 100230 81
2003-06-23 07:20:13 51°19.91 2°46.53 14.5 349 19.4 100230 81
2003-06-23 07:20:19 51°19.91 2°46.5 16 346 19.4 100230 81
2003-06-23 07:20:25 51°19.92 2°46.47 15.6 349 19.4 100230 81
2003-06-23 07:20:29 51°19.92 2°46.44 15.3 351 19.4 100230 81
2003-06-23 07:20:33 51°19.92 2°46.42 14.2 350 19.3 100230 81
2003-06-23 07:20:39 51°19.92 2°46.39 15.4 350 19.3 100230 81
2003-06-23 07:20:45 51°19.93 2°46.36 14.2 348 19.3 100230 81
2003-06-23 07:20:49 51°19.93 2°46.33 14.2 353 19.3 100230 81
2003-06-23 07:20:53 51°19.93 2°46.31 14.8 351 19.3 100230 81
2003-06-23 07:20:59 51°19.93 2°46.28 14.5 347 19.3 100230 81
2003-06-23 07:21:05 51°19.94 2°46.25 13.7 351 19.3 100220 81
2003-06-23 07:21:09 51°19.94 2°46.22 15.5 350 19.3 100220 81
2003-06-23 07:21:13 51°19.94 2°46.2 15.2 352 19.3 100230 81
2003-06-23 07:21:17 51°19.94 2°46.18 14.4 348 19.3 100230 81
2003-06-23 07:21:25 51°19.95 2°46.14 14.9 349 19.3 100240 81
2003-06-23 07:21:29 51°19.95 2°46.12 14.9 348 19.3 100240 81
2003-06-23 07:21:33 51°19.95 2°46.09 15.1 349 19.3 100220 81
2003-06-23 07:21:39 51°19.96 2°46.06 15.2 351 19.3 100220 81
2003-06-23 07:21:45 51°19.96 2°46.03 14.3 354 19.2 100220 81
2003-06-23 07:21:49 51°19.96 2°46.01 15.6 352 19.2 100220 81
2003-06-23 07:21:53 51°19.97 2°45.99 14.6 350 19.2 100230 81
2003-06-23 07:21:59 51°19.97 2°45.95 15.8 347 19.2 100230 81
2003-06-23 07:22:05 51°19.97 2°45.92 15.2 351 19.2 100230 81
2003-06-23 07:22:09 51°19.98 2°45.9 14 352 19.2 100230 81
2003-06-23 07:22:13 51°19.98 2°45.88 14.1 351 19.2 100230 81
2003-06-23 07:22:17 51°19.98 2°45.86 14.2 349 19.2 100230 81
2003-06-23 07:22:25 51°19.98 2°45.81 15.5 348 19.2 100230 81
2003-06-23 07:22:29 51°19.99 2°45.79 15.2 352 19.2 100230 81
2003-06-23 07:22:33 51°19.99 2°45.77 14.4 351 19.2 100230 81
2003-06-23 07:22:39 51°19.99 2°45.74 13.7 351 19.2 100230 81
2003-06-23 07:22:45 51°20 2°45.71 13.9 349 19.2 100230 81
2003-06-23 07:22:49 51°20 2°45.68 14.8 351 19.2 100230 81
2003-06-23 07:22:53 51°20 2°45.66 15.2 349 19.2 100230 81
2003-06-23 07:22:59 51°20.01 2°45.63 14.9 350 19.2 100230 81
2003-06-23 07:23:05 51°20.01 2°45.6 15.1 350 19.2 100230 81
2003-06-23 07:23:09 51°20.01 2°45.58 15.5 349 19.2 100230 81
2003-06-23 07:23:13 51°20.02 2°45.55 15 354 19.2 100230 81
2003-06-23 07:23:19 51°20.02 2°45.52 15.4 349 19.2 100230 81
2003-06-23 07:23:25 51°20.02 2°45.49 15.2 354 19.1 100230 81
2003-06-23 07:23:29 51°20.03 2°45.47 14.3 355 19.1 100230 81
2003-06-23 07:23:33 51°20.03 2°45.45 15.8 351 19.1 100230 81
2003-06-23 07:23:39 51°20.03 2°45.41 15.3 350 19.1 100230 81
2003-06-23 07:23:45 51°20.04 2°45.38 15.2 354 19.1 100230 81
2003-06-23 07:23:49 51°20.04 2°45.36 14.4 352 19.1 100230 81
2003-06-23 07:23:53 51°20.04 2°45.34 14.7 351 19.1 100230 81
2003-06-23 07:23:59 51°20.05 2°45.3 15 353 19.1 100230 81
2003-06-23 07:24:05 51°20.05 2°45.27 15.3 352 19.1 100230 81
2003-06-23 07:24:09 51°20.05 2°45.25 14.9 353 19.1 100230 81
2003-06-23 07:24:13 51°20.06 2°45.23 15.8 350 19.1 100220 81
2003-06-23 07:24:17 51°20.06 2°45.21 15.3 355 19.1 100220 81
2003-06-23 07:24:25 51°20.06 2°45.16 15.3 353 19.1 100220 81
2003-06-23 07:24:29 51°20.07 2°45.14 15.7 353 19.1 100220 81
2003-06-23 07:24:33 51°20.07 2°45.12 15.4 352 19.1 100230 81
2003-06-23 07:24:39 51°20.07 2°45.09 15.8 350 19.1 100230 81
2003-06-23 07:24:45 51°20.08 2°45.05 15 356 19.1 100230 81
2003-06-23 07:24:49 51°20.08 2°45.03 15.2 352 19.1 100230 81
2003-06-23 07:24:53 51°20.08 2°45.01 14.7 351 19.1 100230 81
2003-06-23 07:24:59 51°20.09 2°44.98 15.6 353 19.1 100230 81
2003-06-23 07:25:05 51°20.09 2°44.94 15.8 351 19.1 100230 81
2003-06-23 07:25:09 51°20.09 2°44.92 14.7 355 19.1 100230 81
2003-06-23 07:25:13 51°20.1 2°44.9 15.4 354 19.1 100240 81
2003-06-23 07:25:17 51°20.1 2°44.88 15.3 352 19.1 100240 81
2003-06-23 07:25:25 51°20.1 2°44.83 15.1 352 19.1 100240 81
2003-06-23 07:25:29 51°20.11 2°44.81 14.6 359 19.1 100240 81
2003-06-23 07:25:33 51°20.11 2°44.79 14.1 353 19.1 100230 81
2003-06-23 07:25:39 51°20.11 2°44.76 15 350 19.1 100230 81
2003-06-23 07:25:45 51°20.12 2°44.72 15.8 353 19 100230 81
2003-06-23 07:25:49 51°20.12 2°44.7 15.3 354 19 100230 81
2003-06-23 07:25:53 51°20.12 2°44.68 15.8 353 19.1 100240 81
2003-06-23 07:25:59 51°20.13 2°44.64 15.1 356 19.1 100240 81
2003-06-23 07:26:05 51°20.13 2°44.61 15.5 352 19 100240 81
2003-06-23 07:26:09 51°20.13 2°44.59 14.3 354 19 100240 81
2003-06-23 07:26:13 51°20.14 2°44.57 14.5 356 19 100240 81
2003-06-23 07:26:19 51°20.14 2°44.53 15 348 19 100240 81
2003-06-23 07:26:25 51°20.14 2°44.5 13.9 356 19 100240 81
2003-06-23 07:26:29 51°20.15 2°44.48 14.4 355 19 100240 81
2003-06-23 07:26:33 51°20.15 2°44.46 14.6 354 19 100240 81
2003-06-23 07:26:39 51°20.15 2°44.42 15.4 353 19 100240 81
2003-06-23 07:26:45 51°20.16 2°44.39 15.1 355 19 100240 81
2003-06-23 07:26:49 51°20.16 2°44.37 15.6 353 19 100240 81
2003-06-23 07:26:53 51°20.16 2°44.34 14.7 354 19 100240 81
2003-06-23 07:26:59 51°20.17 2°44.31 15.7 352 19 100240 81
2003-06-23 07:27:05 51°20.17 2°44.28 15 354 19 100240 81
2003-06-23 07:27:09 51°20.17 2°44.26 14.8 354 19 100240 81
2003-06-23 07:27:13 51°20.18 2°44.23 14.8 356 19 100240 81
2003-06-23 07:27:17 51°20.18 2°44.21 15.4 357 19 100240 81
2003-06-23 07:27:25 51°20.19 2°44.17 14.6 353 19 100240 81
2003-06-23 07:27:29 51°20.19 2°44.14 14.2 356 19 100240 81
2003-06-23 07:27:33 51°20.19 2°44.12 13.4 355 19 100230 81
2003-06-23 07:27:39 51°20.2 2°44.09 13.7 354 19 100230 81
2003-06-23 07:27:45 51°20.2 2°44.05 14.5 355 18.9 100240 81
2003-06-23 07:27:49 51°20.2 2°44.03 14.2 354 18.9 100240 81
2003-06-23 07:27:53 51°20.2 2°44.01 15 358 19 100240 81
2003-06-23 07:27:59 51°20.21 2°43.98 13.6 356 19 100240 81
2003-06-23 07:28:05 51°20.21 2°43.94 13.9 357 18.9 100240 81
2003-06-23 07:28:09 51°20.22 2°43.92 14.5 354 18.9 100240 81
2003-06-23 07:28:13 51°20.22 2°43.9 13.9 354 18.9 100240 81
2003-06-23 07:28:17 51°20.22 2°43.87 14.8 354 18.9 100240 81
2003-06-23 07:28:25 51°20.23 2°43.83 14.7 354 18.9 100240 81
2003-06-23 07:28:29 51°20.23 2°43.81 14 354 18.9 100240 81
2003-06-23 07:28:33 51°20.23 2°43.78 13.8 354 18.9 100240 81
2003-06-23 07:28:39 51°20.24 2°43.75 15.2 355 18.9 100240 81
2003-06-23 07:28:45 51°20.24 2°43.72 13.9 356 18.9 100250 81
2003-06-23 07:28:49 51°20.24 2°43.69 14.8 354 18.9 100250 81
2003-06-23 07:28:53 51°20.25 2°43.67 14.2 356 18.9 100250 81
2003-06-23 07:28:59 51°20.25 2°43.64 14.4 355 18.9 100250 81
2003-06-23 07:29:05 51°20.25 2°43.6 14.6 353 18.8 100240 81
2003-06-23 07:29:09 51°20.26 2°43.58 14.5 357 18.8 100240 81
2003-06-23 07:29:13 51°20.26 2°43.56 14.1 356 18.8 100240 81
2003-06-23 07:29:19 51°20.26 2°43.53 14.4 355 18.8 100240 81
2003-06-23 07:29:25 51°20.27 2°43.49 14.1 352 18.8 100250 81
2003-06-23 07:29:29 51°20.27 2°43.47 14 354 18.8 100250 81
2003-06-23 07:29:33 51°20.27 2°43.45 14.3 354 18.8 100240 81
2003-06-23 07:29:39 51°20.28 2°43.41 13.6 356 18.8 100240 81
2003-06-23 07:29:45 51°20.28 2°43.38 14.7 355 18.8 100250 81
2003-06-23 07:29:49 51°20.28 2°43.36 13.8 356 18.8 100250 81
2003-06-23 07:29:53 51°20.28 2°43.33 13.9 353 18.8 100250 81
2003-06-23 07:29:59 51°20.29 2°43.3 13.9 352 18.8 100250 81
2003-06-23 07:30:05 51°20.29 2°43.27 13.6 354 18.8 100250 81
2003-06-23 07:30:09 51°20.29 2°43.24 14.3 355 18.8 100250 81
2003-06-23 07:30:13 51°20.29 2°43.22 13.1 353 18.8 100250 82
2003-06-23 07:30:17 51°20.3 2°43.2 14.5 351 18.8 100250 82
2003-06-23 07:30:25 51°20.3 2°43.16 14.1 356 18.8 100250 82
2003-06-23 07:30:29 51°20.3 2°43.13 14.4 355 18.8 100250 82
2003-06-23 07:30:33 51°20.3 2°43.11 14.8 354 18.7 100240 82
2003-06-23 07:30:39 51°20.31 2°43.08 13.7 356 18.7 100240 82
2003-06-23 07:30:45 51°20.31 2°43.05 13.8 356 18.7 100250 82
2003-06-23 07:30:49 51°20.31 2°43.02 14.3 354 18.7 100250 82
2003-06-23 07:30:53 51°20.31 2°43 14 355 18.7 100240 82
2003-06-23 07:30:59 51°20.32 2°42.97 14.5 355 18.7 100240 82
2003-06-23 07:31:05 51°20.32 2°42.93 14.2 357 18.7 100240 82
2003-06-23 07:31:09 51°20.32 2°42.91 13.8 352 18.7 100240 82
2003-06-23 07:31:13 51°20.33 2°42.89 14.3 354 18.7 100250 82
2003-06-23 07:31:19 51°20.33 2°42.86 13.2 354 18.7 100250 82
2003-06-23 07:31:25 51°20.33 2°42.82 13.3 356 18.7 100250 82
2003-06-23 07:31:29 51°20.33 2°42.8 14.5 355 18.7 100250 82
2003-06-23 07:31:33 51°20.34 2°42.78 14.1 353 18.7 100250 82
2003-06-23 07:31:39 51°20.34 2°42.75 13.7 355 18.7 100250 82
2003-06-23 07:31:45 51°20.34 2°42.71 13.7 358 18.7 100250 82
2003-06-23 07:31:49 51°20.35 2°42.69 13.7 351 18.7 100250 82
2003-06-23 07:31:53 51°20.35 2°42.67 13.9 355 18.7 100250 82
2003-06-23 07:31:57 51°20.35 2°42.65 14.3 354 18.7 100250 82
2003-06-23 07:32:05 51°20.35 2°42.6 14.6 349 18.7 100250 82
2003-06-23 07:32:09 51°20.36 2°42.58 13.8 355 18.7 100250 82
2003-06-23 07:32:13 51°20.36 2°42.56 14.6 357 18.6 100240 82
2003-06-23 07:32:19 51°20.36 2°42.53 13.6 355 18.6 100240 82
2003-06-23 07:32:25 51°20.36 2°42.49 13.8 354 18.6 100240 82
2003-06-23 07:32:29 51°20.37 2°42.47 13.9 355 18.6 100240 82
2003-06-23 07:32:33 51°20.37 2°42.45 13 354 18.6 100240 82
2003-06-23 07:32:39 51°20.37 2°42.42 15 352 18.6 100240 82
2003-06-23 07:32:45 51°20.38 2°42.38 14.3 354 18.6 100250 82
2003-06-23 07:32:49 51°20.38 2°42.36 15.2 355 18.6 100250 82
2003-06-23 07:32:53 51°20.38 2°42.34 14.5 354 18.6 100250 82
2003-06-23 07:32:59 51°20.38 2°42.31 14.1 355 18.6 100250 82
2003-06-23 07:33:05 51°20.39 2°42.27 14.3 352 18.6 100250 82
2003-06-23 07:33:09 51°20.39 2°42.25 14.5 360 18.6 100250 82
2003-06-23 07:33:13 51°20.39 2°42.23 13.9 354 18.6 100250 82
2003-06-23 07:33:19 51°20.39 2°42.2 13.6 357 18.6 100250 82
2003-06-23 07:33:25 51°20.4 2°42.16 13.5 358 18.6 100250 82
2003-06-23 07:33:29 51°20.4 2°42.14 13.2 356 18.6 100250 82
2003-06-23 07:33:33 51°20.4 2°42.12 13.3 355 18.6 100250 82
2003-06-23 07:33:39 51°20.4 2°42.09 13.4 357 18.6 100250 82
2003-06-23 07:33:45 51°20.41 2°42.05 13.3 354 18.6 100250 82
2003-06-23 07:33:49 51°20.41 2°42.03 13.7 357 18.6 100250 82
2003-06-23 07:33:53 51°20.41 2°42.01 13.6 358 18.6 100250 82
2003-06-23 07:33:59 51°20.42 2°41.98 14.4 354 18.6 100250 82
2003-06-23 07:34:05 51°20.42 2°41.94 14.6 353 18.6 100250 83
2003-06-23 07:34:09 51°20.42 2°41.92 12.5 357 18.6 100250 83
2003-06-23 07:34:13 51°20.42 2°41.9 13 355 18.6 100240 83
2003-06-23 07:34:17 51°20.43 2°41.88 13.3 353 18.6 100240 83
2003-06-23 07:34:25 51°20.43 2°41.84 15 353 18.6 100250 83
2003-06-23 07:34:29 51°20.43 2°41.81 13.5 352 18.6 100250 83
2003-06-23 07:34:33 51°20.44 2°41.79 13.7 356 18.5 100250 83
2003-06-23 07:34:39 51°20.44 2°41.76 14 356 18.5 100250 83
2003-06-23 07:34:45 51°20.44 2°41.73 14.2 354 18.6 100250 83
2003-06-23 07:34:49 51°20.45 2°41.7 14.5 356 18.6 100250 83
2003-06-23 07:34:53 51°20.45 2°41.68 14.1 351 18.5 100240 83
2003-06-23 07:34:59 51°20.45 2°41.65 13.6 354 18.5 100240 83
2003-06-23 07:35:05 51°20.46 2°41.62 14 355 18.5 100250 83
2003-06-23 07:35:09 51°20.46 2°41.6 13.6 354 18.5 100250 83
2003-06-23 07:35:13 51°20.46 2°41.57 14.6 356 18.6 100240 83
2003-06-23 07:35:17 51°20.46 2°41.55 14.4 353 18.6 100240 83
2003-06-23 07:35:25 51°20.47 2°41.51 14.1 352 18.5 100240 83
2003-06-23 07:35:29 51°20.47 2°41.49 13.6 355 18.5 100240 83
2003-06-23 07:35:33 51°20.47 2°41.46 13.6 359 18.6 100240 83
2003-06-23 07:35:39 51°20.48 2°41.43 14.3 354 18.6 100240 83
2003-06-23 07:35:45 51°20.48 2°41.4 14.8 355 18.5 100250 83
2003-06-23 07:35:49 51°20.48 2°41.38 14.4 355 18.5 100250 83
2003-06-23 07:35:53 51°20.49 2°41.36 13.6 354 18.5 100250 83
2003-06-23 07:35:59 51°20.49 2°41.32 13.8 353 18.5 100250 83
2003-06-23 07:36:05 51°20.49 2°41.29 14.1 354 18.5 100250 83
2003-06-23 07:36:09 51°20.5 2°41.27 14.4 354 18.5 100250 83
2003-06-23 07:36:13 51°20.5 2°41.25 14.1 351 18.5 100240 83
2003-06-23 07:36:19 51°20.5 2°41.21 13.3 356 18.5 100240 83
2003-06-23 07:36:25 51°20.51 2°41.18 13.4 357 18.5 100250 83
2003-06-23 07:36:29 51°20.51 2°41.16 13.6 353 18.5 100250 83
2003-06-23 07:36:33 51°20.51 2°41.14 13.7 355 18.5 100240 83
2003-06-23 07:36:39 51°20.52 2°41.1 13.2 354 18.5 100240 83
2003-06-23 07:36:45 51°20.52 2°41.07 13.8 354 18.5 100250 83
2003-06-23 07:36:49 51°20.52 2°41.05 12.7 356 18.5 100250 83
2003-06-23 07:36:53 51°20.53 2°41.02 13.8 355 18.5 100250 83
2003-06-23 07:36:59 51°20.53 2°40.99 15 356 18.5 100250 83
2003-06-23 07:37:05 51°20.54 2°40.96 14.8 356 18.6 100240 83
2003-06-23 07:37:09 51°20.54 2°40.94 13.7 356 18.6 100240 83
2003-06-23 07:37:13 51°20.54 2°40.91 13.8 354 18.5 100250 83
2003-06-23 07:37:17 51°20.54 2°40.89 14.4 357 18.5 100250 83
2003-06-23 07:37:25 51°20.55 2°40.85 14.1 356 18.5 100240 83
2003-06-23 07:37:29 51°20.55 2°40.82 14.9 356 18.5 100240 83
2003-06-23 07:37:33 51°20.56 2°40.8 14.4 354 18.5 100240 83
2003-06-23 07:37:39 51°20.56 2°40.77 14.5 352 18.5 100240 83
2003-06-23 07:37:45 51°20.56 2°40.73 14.3 357 18.5 100250 83
2003-06-23 07:37:49 51°20.57 2°40.71 13.8 357 18.5 100250 83
2003-06-23 07:37:53 51°20.57 2°40.69 15 354 18.5 100240 83
2003-06-23 07:37:59 51°20.57 2°40.66 15.4 352 18.5 100240 83
2003-06-23 07:38:05 51°20.58 2°40.62 14.8 351 18.5 100240 82
2003-06-23 07:38:09 51°20.58 2°40.6 15.4 357 18.5 100240 82
2003-06-23 07:38:13 51°20.58 2°40.58 15.1 359 18.5 100240 82
2003-06-23 07:38:17 51°20.59 2°40.56 14.5 356 18.5 100240 82
2003-06-23 07:38:25 51°20.59 2°40.51 14.5 359 18.5 100240 82
2003-06-23 07:38:29 51°20.6 2°40.49 14.6 357 18.5 100240 82
2003-06-23 07:38:33 51°20.6 2°40.47 14.5 353 18.5 100240 82
2003-06-23 07:38:39 51°20.6 2°40.43 14.1 358 18.5 100240 82
2003-06-23 07:38:45 51°20.61 2°40.4 14.3 358 18.5 100240 82
2003-06-23 07:38:49 51°20.61 2°40.38 13.9 357 18.5 100240 82
2003-06-23 07:38:53 51°20.61 2°40.35 13.9 356 18.5 100240 82
2003-06-23 07:38:59 51°20.62 2°40.32 14.7 353 18.5 100240 82
2003-06-23 07:39:05 51°20.62 2°40.29 14.4 355 18.5 100240 82
2003-06-23 07:39:09 51°20.62 2°40.26 14.3 357 18.5 100240 82
2003-06-23 07:39:13 51°20.63 2°40.24 13.9 356 18.5 100240 82
2003-06-23 07:39:19 51°20.63 2°40.21 13.7 354 18.5 100240 82
2003-06-23 07:39:25 51°20.63 2°40.17 13.4 354 18.5 100240 82
2003-06-23 07:39:29 51°20.64 2°40.15 14.3 355 18.5 100240 82
2003-06-23 07:39:33 51°20.64 2°40.13 14.5 357 18.5 100240 82
2003-06-23 07:39:39 51°20.64 2°40.1 13.6 353 18.5 100240 82
2003-06-23 07:39:45 51°20.65 2°40.06 14.2 354 18.5 100250 82
2003-06-23 07:39:49 51°20.65 2°40.04 13.2 353 18.5 100250 82
2003-06-23 07:39:53 51°20.65 2°40.02 14.1 356 18.5 100240 82
2003-06-23 07:39:59 51°20.65 2°39.98 13.8 351 18.5 100240 82
2003-06-23 07:40:05 51°20.66 2°39.95 13.7 355 18.5 100250 82
2003-06-23 07:40:09 51°20.66 2°39.93 13.6 355 18.5 100250 82
2003-06-23 07:40:13 51°20.66 2°39.91 13.9 354 18.5 100240 82
2003-06-23 07:40:17 51°20.67 2°39.88 14.3 355 18.5 100240 82
2003-06-23 07:40:25 51°20.67 2°39.84 14.3 353 18.5 100250 82
2003-06-23 07:40:29 51°20.67 2°39.82 14.3 352 18.5 100250 82
2003-06-23 07:40:33 51°20.68 2°39.8 13.4 354 18.5 100250 82
2003-06-23 07:40:39 51°20.68 2°39.76 13.4 359 18.5 100250 82
2003-06-23 07:40:45 51°20.68 2°39.73 13.9 354 18.5 100250 82
2003-06-23 07:40:49 51°20.69 2°39.71 13.7 354 18.5 100250 82
2003-06-23 07:40:53 51°20.69 2°39.68 13.7 355 18.5 100250 82
2003-06-23 07:40:59 51°20.69 2°39.65 13.5 353 18.5 100250 82
2003-06-23 07:41:05 51°20.7 2°39.62 14.2 356 18.5 100240 82
2003-06-23 07:41:09 51°20.7 2°39.6 14.4 358 18.5 100240 82
2003-06-23 07:41:13 51°20.7 2°39.57 14.3 355 18.5 100240 82
2003-06-23 07:41:17 51°20.7 2°39.55 13.7 356 18.5 100240 82
2003-06-23 07:41:25 51°20.71 2°39.51 14.2 355 18.5 100250 82
2003-06-23 07:41:29 51°20.71 2°39.48 13.9 356 18.5 100250 82
2003-06-23 07:41:33 51°20.71 2°39.46 14.5 357 18.4 100250 82
2003-06-23 07:41:39 51°20.72 2°39.43 13.8 355 18.4 100250 82
2003-06-23 07:41:45 51°20.72 2°39.39 13 356 18.4 100240 82
2003-06-23 07:41:49 51°20.72 2°39.37 15.1 355 18.4 100240 82
2003-06-23 07:41:53 51°20.73 2°39.35 14.6 354 18.4 100250 82
2003-06-23 07:41:59 51°20.73 2°39.32 15.3 354 18.4 100250 82
2003-06-23 07:42:05 51°20.73 2°39.28 14.7 356 18.4 100260 82
2003-06-23 07:42:09 51°20.74 2°39.26 15.2 356 18.4 100260 82
2003-06-23 07:42:13 51°20.74 2°39.24 14.4 355 18.4 100250 82
2003-06-23 07:42:19 51°20.74 2°39.21 13.9 357 18.4 100250 82
2003-06-23 07:42:25 51°20.74 2°39.17 14 357 18.4 100250 82
2003-06-23 07:42:29 51°20.75 2°39.15 13.6 357 18.4 100250 82
2003-06-23 07:42:33 51°20.75 2°39.13 13.8 357 18.4 100250 82
2003-06-23 07:42:39 51°20.75 2°39.09 13.5 355 18.4 100250 82
2003-06-23 07:42:45 51°20.76 2°39.06 14.5 359 18.4 100250 82
2003-06-23 07:42:49 51°20.76 2°39.04 13.8 355 18.4 100250 82
2003-06-23 07:42:53 51°20.76 2°39.02 13.9 356 18.4 100250 82
2003-06-23 07:42:59 51°20.77 2°38.98 14.1 356 18.4 100250 82
2003-06-23 07:43:05 51°20.77 2°38.95 14 356 18.4 100250 82
2003-06-23 07:43:09 51°20.77 2°38.93 13.2 359 18.4 100250 82
2003-06-23 07:43:13 51°20.77 2°38.9 13.7 356 18.4 100250 82
2003-06-23 07:43:17 51°20.78 2°38.88 13.6 359 18.4 100250 82
2003-06-23 07:43:25 51°20.78 2°38.84 13.7 358 18.4 100250 82
2003-06-23 07:43:29 51°20.78 2°38.81 14 358 18.4 100250 82
2003-06-23 07:43:33 51°20.79 2°38.79 13.9 358 18.4 100260 82
2003-06-23 07:43:39 51°20.79 2°38.76 14.1 354 18.4 100260 82
2003-06-23 07:43:45 51°20.79 2°38.72 14 358 18.4 100260 82
2003-06-23 07:43:49 51°20.8 2°38.7 14.7 357 18.4 100260 82
2003-06-23 07:43:53 51°20.8 2°38.68 13.6 356 18.4 100250 82
2003-06-23 07:43:59 51°20.8 2°38.65 13.8 357 18.4 100250 82
2003-06-23 07:44:05 51°20.81 2°38.61 14 354 18.3 100250 82
2003-06-23 07:44:09 51°20.81 2°38.59 15.1 359 18.3 100250 82
2003-06-23 07:44:13 51°20.81 2°38.57 15 355 18.3 100250 82
2003-06-23 07:44:17 51°20.81 2°38.54 14.6 355 18.3 100250 82
2003-06-23 07:44:25 51°20.82 2°38.5 14 354 18.3 100250 82
2003-06-23 07:44:29 51°20.82 2°38.48 14.2 353 18.3 100250 82
2003-06-23 07:44:33 51°20.82 2°38.45 14.5 354 18.3 100260 82
2003-06-23 07:44:39 51°20.82 2°38.42 13.9 355 18.3 100260 82
2003-06-23 07:44:45 51°20.83 2°38.39 14.4 358 18.3 100250 82
2003-06-23 07:44:49 51°20.83 2°38.36 14.1 354 18.3 100250 82
2003-06-23 07:44:53 51°20.83 2°38.34 13.9 356 18.3 100260 83
2003-06-23 07:44:59 51°20.84 2°38.31 13.4 357 18.3 100260 83
2003-06-23 07:45:05 51°20.84 2°38.27 13.5 354 18.3 100250 83
2003-06-23 07:45:09 51°20.84 2°38.25 14.3 355 18.3 100250 83
2003-06-23 07:45:13 51°20.84 2°38.23 13.9 357 18.3 100250 83
2003-06-23 07:45:19 51°20.85 2°38.19 13.1 358 18.3 100250 83
2003-06-23 07:45:25 51°20.85 2°38.16 13.1 356 18.3 100250 83
2003-06-23 07:45:29 51°20.85 2°38.14 13.6 354 18.3 100250 83
2003-06-23 07:45:33 51°20.86 2°38.11 13.8 357 18.3 100260 83
2003-06-23 07:45:39 51°20.86 2°38.08 13.6 357 18.3 100260 83
2003-06-23 07:45:45 51°20.86 2°38.05 13.8 356 18.3 100260 83
2003-06-23 07:45:49 51°20.86 2°38.02 14 359 18.3 100260 83
2003-06-23 07:45:53 51°20.87 2°38 13.3 355 18.3 100260 83
2003-06-23 07:45:59 51°20.87 2°37.97 14.1 357 18.3 100260 83
2003-06-23 07:46:05 51°20.87 2°37.93 14.1 355 18.3 100260 83
2003-06-23 07:46:09 51°20.88 2°37.91 13.9 357 18.3 100260 83
2003-06-23 07:46:13 51°20.88 2°37.89 13.9 356 18.3 100260 83
2003-06-23 07:46:17 51°20.88 2°37.87 13.4 356 18.3 100260 83
2003-06-23 07:46:25 51°20.89 2°37.82 13.5 357 18.3 100260 83
2003-06-23 07:46:29 51°20.89 2°37.8 13.5 360 18.3 100260 83
2003-06-23 07:46:33 51°20.89 2°37.78 12.5 355 18.3 100250 83
2003-06-23 07:46:39 51°20.89 2°37.74 13.2 358 18.3 100250 83
2003-06-23 07:46:45 51°20.9 2°37.71 13 360 18.2 100240 83
2003-06-23 07:46:49 51°20.9 2°37.69 12.6 358 18.2 100240 83
2003-06-23 07:46:53 51°20.9 2°37.66 12.3 359 18.3 100250 83
2003-06-23 07:46:59 51°20.91 2°37.63 13.1 358 18.3 100250 83
2003-06-23 07:47:05 51°20.91 2°37.6 13.2 360 18.2 100250 83
2003-06-23 07:47:09 51°20.91 2°37.58 13.6 356 18.2 100250 83
2003-06-23 07:47:13 51°20.91 2°37.55 13.2 358 18.2 100250 83
2003-06-23 07:47:19 51°20.92 2°37.52 13.9 357 18.2 100250 83
2003-06-23 07:47:25 51°20.92 2°37.49 13.3 354 18.2 100250 83
2003-06-23 07:47:29 51°20.92 2°37.46 13.6 357 18.2 100250 83
2003-06-23 07:47:33 51°20.93 2°37.44 14.6 356 18.2 100250 83
2003-06-23 07:47:39 51°20.93 2°37.41 13.3 358 18.2 100250 83
2003-06-23 07:47:45 51°20.93 2°37.37 13.6 360 18.2 100250 83
2003-06-23 07:47:49 51°20.93 2°37.35 13.5 358 18.2 100250 83
2003-06-23 07:47:53 51°20.94 2°37.33 13.3 355 18.2 100250 83
2003-06-23 07:47:57 51°20.94 2°37.31 13.3 2 18.2 100250 83
2003-06-23 07:48:05 51°20.94 2°37.26 14.1 3 18.2 100250 83
2003-06-23 07:48:09 51°20.95 2°37.24 13.9 2 18.2 100250 83
2003-06-23 07:48:13 51°20.95 2°37.22 13.5 2 18.2 100250 83
2003-06-23 07:48:19 51°20.95 2°37.18 13.6 360 18.2 100250 83
2003-06-23 07:48:25 51°20.95 2°37.15 14 1 18.2 100250 83
2003-06-23 07:48:29 51°20.95 2°37.13 12.8 2 18.2 100250 83
2003-06-23 07:48:33 51°20.95 2°37.1 13.3 3 18.2 100260 83
2003-06-23 07:48:39 51°20.95 2°37.07 13 2 18.2 100260 83
2003-06-23 07:48:45 51°20.95 2°37.04 13.7 2 18.2 100250 83
2003-06-23 07:48:49 51°20.95 2°37.01 13.6 3 18.2 100250 83
2003-06-23 07:48:53 51°20.96 2°36.99 13.5 4 18.2 100260 83
2003-06-23 07:48:57 51°20.96 2°36.97 13.9 2 18.2 100260 83
2003-06-23 07:49:05 51°20.96 2°36.92 13.6 3 18.1 100260 83
2003-06-23 07:49:09 51°20.96 2°36.9 13.8 4 18.1 100260 83
2003-06-23 07:49:13 51°20.96 2°36.88 14.3 1 18.1 100250 83
2003-06-23 07:49:19 51°20.96 2°36.84 13.4 1 18.1 100250 83
2003-06-23 07:49:25 51°20.96 2°36.81 13.1 3 18.1 100260 83
2003-06-23 07:49:29 51°20.96 2°36.79 13.8 1 18.1 100260 83
2003-06-23 07:49:33 51°20.96 2°36.77 13.9 3 18.1 100250 83
2003-06-23 07:49:39 51°20.97 2°36.73 13.1 6 18.1 100250 83
2003-06-23 07:49:45 51°20.97 2°36.7 13.4 3 18.1 100250 83
2003-06-23 07:49:49 51°20.97 2°36.68 13.7 2 18.1 100250 83
2003-06-23 07:49:53 51°20.97 2°36.65 13.4 4 18.1 100260 83
2003-06-23 07:49:57 51°20.97 2°36.63 13.2 5 18.1 100260 83
2003-06-23 07:50:05 51°20.97 2°36.59 13.2 4 18.1 100250 83
2003-06-23 07:50:09 51°20.97 2°36.56 13.1 4 18.1 100250 83
2003-06-23 07:50:13 51°20.97 2°36.54 13.1 5 18.1 100260 83
2003-06-23 07:50:19 51°20.98 2°36.51 13.1 5 18.1 100260 83
2003-06-23 07:50:25 51°20.98 2°36.47 13.5 360 18.1 100260 83
2003-06-23 07:50:29 51°20.98 2°36.45 12.8 4 18.1 100260 83
2003-06-23 07:50:33 51°20.98 2°36.43 13.3 4 18.1 100260 83
2003-06-23 07:50:39 51°20.98 2°36.39 13.3   18.1 100260 83
2003-06-23 07:50:45 51°20.98 2°36.36 12.6 3 18.1 100250 83
2003-06-23 07:50:49 51°20.98 2°36.34 12.9 3 18.1 100250 83
2003-06-23 07:50:53 51°20.98 2°36.32 13.3 4 18 100260 83
2003-06-23 07:50:57 51°20.99 2°36.29 13.2 4 18 100260 83
2003-06-23 07:51:05 51°20.99 2°36.25 13.4 5 18 100250 83
2003-06-23 07:51:09 51°20.99 2°36.23 14 3 18 100250 83
2003-06-23 07:51:13 51°20.99 2°36.2 13.1 4 18 100260 83
2003-06-23 07:51:19 51°20.99 2°36.17 13.3 5 18 100260 83
2003-06-23 07:51:25 51°20.99 2°36.14 13.3 2 18 100250 83
2003-06-23 07:51:29 51°20.99 2°36.11 13.5 4 18 100250 83
2003-06-23 07:51:33 51°21 2°36.09 12.9 3 18 100250 83
2003-06-23 07:51:39 51°21 2°36.06 13.9 2 18 100250 83
2003-06-23 07:51:45 51°21 2°36.02 13.5 358 18 100250 83
2003-06-23 07:51:49 51°21 2°36 13.6 8 18 100250 83
2003-06-23 07:51:53 51°21 2°35.98 13.6 2 18 100240 83
2003-06-23 07:51:57 51°21 2°35.96 14.3 2 18 100240 83
2003-06-23 07:52:05 51°21.01 2°35.91 13.9 2 18 100250 84
2003-06-23 07:52:09 51°21.01 2°35.89 13.1 3 18 100250 84
2003-06-23 07:52:15 51°21.01 2°35.86 13.5   18 100250 83
2003-06-23 07:52:19 51°21.01 2°35.83 13.8 3 18 100250 83
2003-06-23 07:52:25 51°21.01 2°35.8 14 1 18 100250 83
2003-06-23 07:52:29 51°21.01 2°35.78 13 3 18 100250 83
2003-06-23 07:52:33 51°21.01 2°35.76 13.6 1 18 100260 84
2003-06-23 07:52:39 51°21.02 2°35.72 13.4 3 18 100260 84
2003-06-23 07:52:45 51°21.02 2°35.69 13.8 2 18 100250 84
2003-06-23 07:52:49 51°21.02 2°35.67 13.7 2 18 100250 84
2003-06-23 07:52:53 51°21.02 2°35.64 13.4 360 17.9 100260 84
2003-06-23 07:52:57 51°21.02 2°35.62 13.3 1 17.9 100260 84
2003-06-23 07:53:05 51°21.03 2°35.58 13.1 3 18 100260 84
2003-06-23 07:53:09 51°21.03 2°35.55 13.4 7 18 100260 84
2003-06-23 07:53:13 51°21.03 2°35.53 13.6 2 18 100250 84
2003-06-23 07:53:19 51°21.03 2°35.5 13.1 3 18 100250 84
2003-06-23 07:53:25 51°21.03 2°35.46 13 3 17.9 100260 84
2003-06-23 07:53:29 51°21.03 2°35.44 13.5 4 17.9 100260 84
2003-06-23 07:53:33 51°21.04 2°35.42 13.3 4 17.9 100260 84
2003-06-23 07:53:39 51°21.04 2°35.39 12.9 3 17.9 100260 84
2003-06-23 07:53:45 51°21.04 2°35.35 13.2 1 17.9 100260 84
2003-06-23 07:53:49 51°21.04 2°35.33 13.1 2 17.9 100260 84
2003-06-23 07:53:53 51°21.04 2°35.31 12.4 3 17.9 100260 84
2003-06-23 07:53:57 51°21.04 2°35.29 12.7 3 17.9 100260 84
2003-06-23 07:54:05 51°21.05 2°35.24 12.3 2 17.9 100260 84
2003-06-23 07:54:09 51°21.05 2°35.22 13.4 359 17.9 100260 84
2003-06-23 07:54:13 51°21.05 2°35.2 14 2 17.9 100260 84
2003-06-23 07:54:19 51°21.05 2°35.16 13.4 1 17.9 100260 84
2003-06-23 07:54:25 51°21.05 2°35.13 13.6 4 17.9 100260 84
2003-06-23 07:54:29 51°21.06 2°35.11 13.1 2 17.9 100260 84
2003-06-23 07:54:33 51°21.06 2°35.09 13.1 4 17.9 100260 84
2003-06-23 07:54:39 51°21.06 2°35.05 13.2 1 17.9 100260 84
2003-06-23 07:54:45 51°21.06 2°35.02 13.9 1 17.9 100250 84
2003-06-23 07:54:49 51°21.06 2°35 13.8 3 17.9 100250 84
2003-06-23 07:54:53 51°21.06 2°34.98 13.7 4 17.9 100260 84
2003-06-23 07:54:57 51°21.07 2°34.95 13.6 3 17.9 100260 84
2003-06-23 07:55:05 51°21.07 2°34.91 13.3 2 17.9 100260 84